Crookston, MN

9:33 AM CDT on April 27, 2017 (GMT -0500)
Crookston Municipal-Kirkwood

Weather History for KCKN - October, 2012

Change the Weather History Date:

Saturday, October 6, 2012

  Actual Average Record
Temperature  
Mean Temperature 34 °F -  
Max Temperature 44 °F 58 °F 80 °F (2004)
Min Temperature 24 °F 36 °F 19 °F (2000)
Degree Days  
Heating Degree Days 31    
Moisture  
Dew Point 29 °F    
Average Humidity 81    
Maximum Humidity 100    
Minimum Humidity 53    
Precipitation  
Precipitation 0.00 in - - ()
Sea Level Pressure  
Sea Level Pressure 30.28 in    
Wind  
Wind Speed 10 mph (WNW)    
Max Wind Speed 14 mph    
Max Gust Speed 16 mph    
Visibility 10 miles    
Events      
Averages and records for this station are not official NWS values.
T = Trace of Precipitation, MM = Missing Value Source: NWS Daily Summary

Daily Weather History Graph

Daily Weather History Graph

Search for Another Location

Airport or City:

Trip Planner

Search our weather history database for the weather conditions in past years. The results will help you decide how hot, cold, wet, or windy it might be!

Date:

Astronomy

Oct. 06, 2012 Rise Set
Actual Time 7:33 AM CDT 6:54 PM CDT
Civil Twilight 7:02 AM CDT 7:25 PM CDT
Nautical Twilight 6:26 AM CDT 8:01 PM CDT
Astronomical Twilight 5:50 AM CDT 8:37 PM CDT
Moon 10:51 PM CDT (10/6) 1:49 PM CDT (10/6)
Length of Visible Light 12h 23m
Length of Day
11h 21m
Waning Gibbous, 65% of the Moon is Illuminated
Oct 6
Waning Gibbous
Oct 8
Last Quarter
Oct 15
New
Oct 21
First Quarter
Oct 29
Full

Hourly Weather History & Observations

Time (CDT) Temp. Windchill Dew Point Humidity Pressure Visibility Wind Dir Wind Speed Gust Speed Precip Events Conditions
12:15 AM 30.2 °F 19.8 °F 30.2 °F 100% 30.28 in 10.0 mi North 13.8 mph - N/A   Clear
12:34 AM 30.2 °F 19.8 °F 30.2 °F 100% 30.29 in 10.0 mi North 13.8 mph - N/A   Clear
12:55 AM 32.0 °F 22.5 °F 32.0 °F 100% 30.29 in 10.0 mi North 12.7 mph - N/A   Clear
1:14 AM 30.2 °F 20.2 °F 30.2 °F 100% 30.29 in 10.0 mi North 12.7 mph - N/A   Clear
1:55 AM 30.2 °F 20.8 °F 30.2 °F 100% 30.30 in 10.0 mi North 11.5 mph - N/A   Clear
2:14 AM 30.2 °F 21.3 °F 30.2 °F 100% 30.30 in 10.0 mi North 10.4 mph - N/A   Clear
2:35 AM 30.2 °F 20.8 °F 28.4 °F 93% 30.30 in 10.0 mi North 11.5 mph - N/A   Clear
2:55 AM 30.2 °F 20.2 °F 28.4 °F 93% 30.31 in 10.0 mi North 12.7 mph - N/A   Clear
3:14 AM 30.2 °F 20.2 °F 28.4 °F 93% 30.31 in 10.0 mi North 12.7 mph - N/A   Clear
3:35 AM 30.2 °F 21.3 °F 28.4 °F 93% 30.31 in 10.0 mi North 10.4 mph - N/A   Scattered Clouds
3:55 AM 30.2 °F 21.3 °F 28.4 °F 93% 30.31 in 10.0 mi North 10.4 mph 16.1 mph N/A   Mostly Cloudy
4:35 AM 30.2 °F 21.9 °F 28.4 °F 93% 30.31 in 10.0 mi NNW 9.2 mph - N/A   Clear
4:55 AM 28.4 °F 20.4 °F 28.4 °F 100% 30.31 in 10.0 mi NNW 8.1 mph - N/A   Clear
5:14 AM 28.4 °F 22.2 °F 28.4 °F 100% 30.32 in 10.0 mi NNW 5.8 mph - N/A   Clear
5:35 AM 28.4 °F 19.7 °F 28.4 °F 100% 30.32 in 10.0 mi NNW 9.2 mph - N/A   Clear
5:55 AM 28.4 °F 21.2 °F 26.6 °F 93% 30.32 in 10.0 mi NNW 6.9 mph - N/A   Clear
6:14 AM 26.6 °F 20.0 °F 26.6 °F 100% 30.32 in 10.0 mi NW 5.8 mph - N/A   Clear
6:35 AM 26.6 °F 20.0 °F 26.6 °F 100% 30.33 in 10.0 mi NW 5.8 mph - N/A   Clear
6:54 AM 26.6 °F 21.2 °F 26.6 °F 100% 30.34 in 10.0 mi NNW 4.6 mph - N/A   Clear
7:14 AM 26.6 °F 22.6 °F 24.8 °F 93% 30.34 in 10.0 mi NNW 3.5 mph - N/A   Clear
7:35 AM 26.6 °F 20.0 °F 24.8 °F 93% 30.34 in 10.0 mi NW 5.8 mph - N/A   Clear
7:54 AM 24.8 °F 19.1 °F 24.8 °F 100% 30.34 in 10.0 mi NNW 4.6 mph - N/A   Clear
8:15 AM 26.6 °F 22.6 °F 26.6 °F 100% 30.34 in 10.0 mi NNW 3.5 mph - N/A   Clear
8:35 AM 28.4 °F 24.6 °F 26.6 °F 93% 30.35 in 10.0 mi NNW 3.5 mph - N/A   Clear
9:15 AM 30.2 °F 24.3 °F 28.4 °F 93% 30.35 in 10.0 mi NW 5.8 mph - N/A   Clear
9:35 AM 30.2 °F 22.6 °F 30.2 °F 100% 30.35 in 10.0 mi NW 8.1 mph - N/A   Clear
9:54 AM 32.0 °F 24.2 °F 30.2 °F 93% 30.36 in 10.0 mi NW 9.2 mph - N/A   Clear
10:15 AM 33.8 °F 26.4 °F 32.0 °F 93% 30.36 in 10.0 mi NW 9.2 mph - N/A   Clear
10:35 AM 33.8 °F 26.4 °F 33.8 °F 100% 30.37 in 10.0 mi NW 9.2 mph - N/A   Clear
10:54 AM 35.6 °F 28.0 °F 33.8 °F 93% 30.37 in 10.0 mi NW 10.4 mph - N/A   Clear
11:15 AM 37.4 °F 30.3 °F 33.8 °F 87% 30.37 in 10.0 mi WNW 10.4 mph - N/A   Clear
11:35 AM 39.2 °F 32.0 °F 33.8 °F 81% 30.36 in 10.0 mi NW 11.5 mph - N/A   Clear
11:54 AM 39.2 °F 31.2 °F 32.0 °F 75% 30.36 in 10.0 mi NW 13.8 mph - N/A   Clear
12:15 PM 39.2 °F 32.5 °F 30.2 °F 70% 30.35 in 10.0 mi NW 10.4 mph - N/A   Clear
12:35 PM 39.2 °F 32.0 °F 32.0 °F 75% 30.35 in 10.0 mi NW 11.5 mph - N/A   Scattered Clouds
12:54 PM 41.0 °F 34.7 °F 33.8 °F 76% 30.35 in 10.0 mi NW 10.4 mph - N/A   Mostly Cloudy
1:15 PM 42.8 °F 38.6 °F 30.2 °F 61% 30.34 in 10.0 mi NW 6.9 mph - N/A   Scattered Clouds
1:34 PM 41.0 °F 36.4 °F 30.2 °F 65% 30.33 in 10.0 mi NW 6.9 mph - N/A   Scattered Clouds
1:55 PM 41.0 °F 36.4 °F 30.2 °F 65% 30.32 in 10.0 mi NW 6.9 mph - N/A   Scattered Clouds
2:15 PM 41.0 °F 35.2 °F 30.2 °F 65% 30.31 in 10.0 mi NW 9.2 mph - N/A   Scattered Clouds
2:34 PM 42.8 °F 37.5 °F 30.2 °F 61% 30.30 in 10.0 mi NW 9.2 mph - N/A   Scattered Clouds
2:55 PM 42.8 °F 38.0 °F 28.4 °F 57% 30.29 in 10.0 mi WNW 8.1 mph - N/A   Scattered Clouds
3:15 PM 42.8 °F 37.5 °F 28.4 °F 57% 30.28 in 10.0 mi West 9.2 mph - N/A   Scattered Clouds
3:34 PM 42.8 °F 38.0 °F 30.2 °F 61% 30.28 in 10.0 mi WNW 8.1 mph - N/A   Clear
3:55 PM 44.6 °F 40.7 °F 28.4 °F 53% 30.27 in 10.0 mi WNW 6.9 mph - N/A   Scattered Clouds
4:15 PM 44.6 °F 40.2 °F 28.4 °F 53% 30.26 in 10.0 mi NW 8.1 mph - N/A   Scattered Clouds
4:34 PM 44.6 °F 39.2 °F 28.4 °F 53% 30.25 in 10.0 mi West 10.4 mph - N/A   Scattered Clouds
4:55 PM 44.6 °F 39.2 °F 28.4 °F 53% 30.24 in 10.0 mi West 10.4 mph - N/A   Clear
5:14 PM 44.6 °F 40.2 °F 28.4 °F 53% 30.24 in 10.0 mi West 8.1 mph - N/A   Clear
5:34 PM 44.6 °F 39.7 °F 30.2 °F 57% 30.23 in 10.0 mi WSW 9.2 mph - N/A   Clear
5:55 PM 44.6 °F 41.4 °F 30.2 °F 57% 30.22 in 10.0 mi SW 5.8 mph - N/A   Scattered Clouds
6:14 PM 44.6 °F 39.7 °F 30.2 °F 57% 30.22 in 10.0 mi West 9.2 mph - N/A   Clear
6:34 PM 42.8 °F 38.0 °F 30.2 °F 61% 30.21 in 10.0 mi West 8.1 mph - N/A   Clear
6:55 PM 41.0 °F 36.4 °F 30.2 °F 65% 30.21 in 10.0 mi WSW 6.9 mph - N/A   Clear
7:14 PM 39.2 °F 35.0 °F 30.2 °F 70% 30.20 in 10.0 mi WSW 5.8 mph - N/A   Clear
7:34 PM 37.4 °F 32.8 °F 30.2 °F 75% 30.20 in 10.0 mi WSW 5.8 mph - N/A   Clear
7:55 PM 37.4 °F 33.8 °F 30.2 °F 75% 30.20 in 10.0 mi SW 4.6 mph - N/A   Clear
8:14 PM 35.6 °F 30.7 °F 30.2 °F 81% 30.20 in 10.0 mi SSW 5.8 mph - N/A   Clear
8:34 PM 35.6 °F 29.9 °F 30.2 °F 81% 30.19 in 10.0 mi SW 6.9 mph - N/A   Clear
8:55 PM 33.8 °F 27.7 °F 30.2 °F 87% 30.18 in 10.0 mi SW 6.9 mph - N/A   Clear
9:14 PM 33.8 °F 27.7 °F 28.4 °F 81% 30.18 in 10.0 mi SW 6.9 mph - N/A   Clear
9:35 PM 33.8 °F 27.7 °F 28.4 °F 81% 30.17 in 10.0 mi SW 6.9 mph - N/A   Clear
9:54 PM 33.8 °F 27.7 °F 28.4 °F 81% 30.17 in 10.0 mi SW 6.9 mph - N/A   Clear
10:14 PM 33.8 °F 27.7 °F 28.4 °F 81% 30.16 in 10.0 mi SW 6.9 mph - N/A   Clear
10:35 PM 33.8 °F 27.0 °F 28.4 °F 81% 30.16 in 10.0 mi SW 8.1 mph - N/A   Clear
10:54 PM 33.8 °F 27.0 °F 28.4 °F 81% 30.15 in 10.0 mi SW 8.1 mph - N/A   Clear
11:14 PM 33.8 °F 26.4 °F 28.4 °F 81% 30.14 in 10.0 mi SW 9.2 mph - N/A   Clear
11:35 PM 33.8 °F 25.8 °F 28.4 °F 81% 30.13 in 10.0 mi SW 10.4 mph - N/A   Clear
11:54 PM 33.8 °F 25.8 °F 26.6 °F 75% 30.12 in 10.0 mi SW 10.4 mph - N/A   Clear